Flag for Philippines Weather past 2 weeks in Tarlac City, Philippines

Now
82 °F

Partly sunny.


Feels Like: 91 °F
Forecast: 73 / 91 °F
Wind: 2 mph from Northeast

Location: Clarkfield Pampanga International Airport

Current Time: Aug 30, 2014 at 4:55:50 PM

Latest Report: Aug 30, 2014 at 4:00 PM


Visibility: N/A

Pressure: 29.80 "Hg

Humidity: 84%

Dew point: 77 °F

Location of Tarlac CityLocation

Historic Weather in Tarlac City — Graph

°F

Tarlac City temperature yesterday

Maximum temperature yesterday: 82 °F (at 1:00 PM)
Minimum temperature yesterday: 73 °F (at 1:00 AM)
Average temperature yesterday: 77 °F

Past Weeks' High & Low Weather Summary

 TemperatureHumidityPressure
High93 °F (Aug 15, 3:00 PM)100% (Aug 16, 4:00 PM)29.98 "Hg (Aug 16, 4:00 PM)
Low72 °F (Aug 28, 2:00 PM)49% (Aug 15, 3:00 PM)29.74 "Hg (Aug 26, 4:00 PM)
Average79 °F87%29.85 "Hg
* Reported Aug 15 3:00 PM — Aug 30 3:00 PM, Tarlac City, Weather by CustomWeather, © 2014

Note: Actual official high and low records may vary slightly from our data, if they occured in-between our weather recording intervals... More about our weather records

Advertising

Tarlac City weather history for previous 24 hours

 ConditionsComfort  
Time TempWeatherWind HumidityBarometerVisibility
3:00 PM
Aug 30
82 °FPartly sunny.6 mph79%29.80 "HgN/A
2:00 PM82 °FBroken clouds.6 mph84%29.83 "HgN/A
1:00 PM84 °FBroken clouds.5 mph74%29.83 "HgN/A
12:00 PM84 °FPartly sunny.7 mph70%29.86 "HgN/A
11:00 AM82 °FPartly sunny.3 mph79%29.86 "HgN/A
10:00 AM82 °FPartly sunny.2 mph79%29.86 "HgN/A
9:00 AM79 °FPartly sunny.5 mph84%29.86 "HgN/A
8:00 AM77 °FMore clouds than sun.5 mph94%29.86 "HgN/A
7:00 AM75 °FMore clouds than sun.6 mph94%29.86 "HgN/A
6:00 AM75 °FLight rain. More clouds than sun.6 mph94%29.86 "Hg5 mi
5:00 AM75 °FMostly cloudy.6 mph94%29.86 "Hg5 mi
2:00 AM75 °FMostly cloudy.5 mph94%29.86 "Hg6 mi
1:00 AM75 °FMostly cloudy.5 mph100%29.89 "Hg6 mi
12:00 AM75 °FLight rain. Mostly cloudy.5 mph100%29.89 "Hg5 mi
11:00 PM
Aug 29
75 °FLight rain. Mostly cloudy.7 mph100%29.92 "Hg5 mi
10:00 PM75 °FLight rain. Mostly cloudy.2 mph94%29.92 "Hg5 mi
9:00 PM75 °FLight rain. Mostly cloudy.2 mph94%29.92 "Hg5 mi
8:00 PM77 °FSprinkles. Mostly cloudy.5 mph94%29.89 "HgN/A
7:00 PM79 °FMostly cloudy.2 mph89%29.86 "HgN/A
6:00 PM79 °FOvercast.2 mph89%29.83 "HgN/A
5:00 PM81 °FPartly sunny.5 mph84%29.83 "HgN/A
4:00 PM81 °FWarm.9 mph79%29.83 "HgN/A
Weather by CustomWeather, © 2014

See weather overviewHow to use our weather pages